Content
SEND FEEDBACK

Daily
Averages
Monthly
Summary
Mexico

COZUMEL, QUINTANA ROO


Home > North America > Mexico > Quintana Roo
Elevation: 15 feet     Latitude: 20 31N     Longitude: 086 56W

WEATHER
 
SELECT A DAY
Number of Records: 124,545;   Date Range: 1/1/95 - 7/20/14
 
SHARE

PRINT THIS DATA

[ ← Previous Day ]
WEATHER ALMANAC - JANUARY 20, 2014
[ Next Day → ]
[ °C ]   °F
Weather ElementAverageHighLow
Temperature61 °F75.2 °F (1:44 pm) (2:00 am)
Dewpoint55.2 °F64.4 °F (9:45 am) (7:00 pm)
Humidity83 %100 % (2:21 am)50 % (1:44 pm)
Barometer30.12 in30.21 in (8:47 am)30.07 in (3:40 pm)
Wind Speed3.5 mph11.5 mph (10:42 am)
Weather ElementAverage
Visibility7.5 mi
Wind DirectionNE (42.5 °)

Weather ElementTotal
Precipitation---
Heating Degree Days27.4 (Base 65)
Averaged from 24 records on January 20, 2014
WEATHER CONDITIONS BREAKOUT
WIND DIRECTION BREAKOUT
WEATHER BY HOUR - JANUARY 20, 2014
[ °C ]   °F
Local TimeTemperatureDewpointHumidityBarometerVisibilityWind DirectionWind SpeedGust SpeedPrecipitationEventsConditions
2:00 AM0.0 °F0.0 °FNorth
2:21 AM55.4 °F55.4 °F100 %30.14 in7.0 miCalmScattered Clouds
2:44 AM55.4 °F55.4 °F100 %30.16 in7.0 miCalmScattered Clouds
3:41 AM53.6 °F53.6 °F100 %30.13 in7.0 miCalmScattered Clouds
4:49 AM53.6 °F53.6 °F100 %30.13 in7.0 miCalmScattered Clouds
5:43 AM55.4 °F55.4 °F100 %30.10 in7.0 miCalmPartly Cloudy
6:41 AM57.2 °F57.2 °F100 %30.14 in7.0 miESE (110°)3.5 mphScattered Clouds
7:44 AM66.2 °F62.6 °F88 %30.16 in7.0 miENE (60°)3.5 mphScattered Clouds
8:47 AM68.0 °F62.6 °F83 %30.21 in7.0 miNNE (30°)4.6 mphScattered Clouds
9:45 AM69.8 °F64.4 °F83 %30.20 in8.0 miEast (80°)5.8 mphScattered Clouds
10:42 AM73.4 °F59.0 °F61 %30.17 in8.0 miENE (70°)11.5 mphScattered Clouds
11:47 AM73.4 °F59.0 °F61 %30.12 in8.0 miEast (80°)9.2 mphScattered Clouds
12:49 PM73.4 °F59.0 °F61 %30.10 in8.0 miEast (80°)9.2 mphScattered Clouds
1:44 PM75.2 °F55.4 °F50 %30.08 in8.0 miEast (80°)9.2 mphScattered Clouds
2:40 PM73.4 °F57.2 °F57 %30.10 in8.0 miESE (110°)5.8 mphPartly Cloudy
3:40 PM73.4 °F57.2 °F57 %30.07 in8.0 miESE (110°)9.2 mphPartly Cloudy
4:41 PM71.6 °F57.2 °F60 %30.08 in8.0 miEast (100°)5.8 mphPartly Cloudy
5:40 PM66.2 °F59.0 °F78 %30.07 in8.0 miCalmClear
6:40 PM62.6 °F59.0 °F88 %30.09 in8.0 miESE (110°)3.5 mphClear
7:40 PM60.8 °F57.2 °F88 %30.11 in8.0 miCalmClear
8:42 PM59.0 °F57.2 °F94 %30.14 in7.0 miCalmClear
9:43 PM57.2 °F57.2 °F100 %30.12 in7.0 miCalmClear
10:40 PM55.4 °F55.4 °F100 %30.10 in7.0 miCalmClear
11:40 PM55.4 °F55.4 °F100 %30.08 in7.0 miCalmClear
Hourly data recorded from MMCZ, located miles away from Cozumel, Quintana Roo







STORIES FROM OUR PARTNERS